ONEWEB-0407 (50487 NORAD) Tracking and Keplerian Element Data

This shows tracking and keplerian element data for the satellite.

Feedback or suggestion? Click here.




ElementValue
Catalog50487
NameONEWEB-0407
Epoch Orbit130
Epoch Day140.58334491
Epoch Year2022
RAAN305.2022
Inclination87.2167
Eccentricity0.0005385
Argument of Perigee84.4865
Mean Anonmoly295.9852
Mean Motion14.92472141
Decay Rate-0.00053314
L11 50487U 21132U 22140.58334491 -.00053314 00000+0 -52481-2 0 9998
L22 50487 87.2167 305.2022 0005385 84.4865 295.9852 14.92472141 1306

Live tracking and technical data element details for ONEWEB-0407 (NORAD 50487). ONEWEB-0407 can be tracked NOW for your location showing map with azimuth and elevation plus other details from your city location.

Track the satellite on the map from your city or location and see movement details for azimuth, elevation, latitude, longitude, range, height, and movement on the map or in text.







IsCatalogInMostPopularTable: catalog: 50487, numindb: 34
Update: records affected: 1



GetName: 50487 ONEWEB-0407

Hit Count: updated at: Sun, 22 May 2022 05:38:51 GMT